Date String (YYYY-MM-DD hh:mm:ss) UTC,Instrument flags,absolute air pressure of the measurement (hPa),sample flow rate (lpm),inlet stack bypass flow (lpm),air temperature of the measurement (°C),ambient temperature measured by the external sensor (°C),aerosol sample conditioner tube jacket temperature (°C),OPC LED temperature (°C),internal box temperature (°C),relative humidity of the measurement (%),span deviation,mass concentration of particles derived from Lorenz-Mie calculation of OPC scattering (μg/m³),mass concentration of particles derived from Lorenz-Mie calculation of OPC scattering (μg/m³),mass concentration of particles derived from Lorenz-Mie calculation of OPC scattering (μg/m³)
DateTimeUTC,F1_M11,P_M11,Q1_M11,Q2_M11,T1_M11,T2_M11,T3_M11,T4_M11,T5_M11,U1_M11,ZSPAN_M11,X0_M11,X2_M11,X1_M11
2023-08-29 19:00:00,SystemResetWarning,0838.7,5.02,000.00,027.7,023.9,000.0,035.8,029.0,32.7,0000.5,0008.31,0004.28,0003.99
2023-08-29 19:01:00,SystemResetWarning,0838.7,4.98,000.00,027.6,024.2,000.0,035.9,028.9,31.8,0000.3,0009.17,0004.30,0004.00
2023-08-29 19:02:00,SystemResetWarning,0838.7,4.99,000.00,027.5,024.5,000.0,035.9,028.9,32.7,0000.9,0009.52,0004.31,0004.00
2023-08-29 19:03:00,SystemResetWarning,0838.7,5.00,000.00,027.5,025.0,000.0,035.9,029.1,33.4,0000.6,0009.60,0004.33,0004.01
2023-08-29 19:04:00,SystemResetWarning,0838.7,5.01,000.00,027.6,025.4,000.0,036.0,029.3,32.6,0000.7,0009.27,0004.31,0004.00
2023-08-29 19:05:00,SystemResetWarning,0838.7,4.99,000.00,027.6,025.8,000.0,036.0,029.4,32.4,0000.0,0009.25,0004.33,0004.01
2023-08-29 19:06:00,SystemResetWarning,0838.7,4.99,000.00,027.7,026.1,000.0,036.0,029.5,32.6,0000.7,0008.70,0004.38,0004.02
2023-08-29 19:07:00,SystemResetWarning,0838.6,5.00,000.00,027.7,026.4,000.0,036.1,029.5,31.6,0001.8,0008.51,0004.39,0004.03
2023-08-29 19:08:00,SystemResetWarning,0838.6,5.00,000.00,027.8,025.9,000.0,036.0,029.5,31.2,0001.3,0008.45,0004.39,0004.04
2023-08-29 19:09:00,SystemResetWarning,0838.6,5.01,000.00,027.7,024.4,000.0,035.9,029.2,32.0,0001.1,0008.39,0004.42,0004.05
2023-08-29 19:10:00,SystemResetWarning,0838.6,5.01,000.00,027.6,023.9,000.0,035.8,029.0,31.4,0000.7,0008.43,0004.44,0004.06
2023-08-29 19:11:00,SystemResetWarning,0838.6,5.01,000.00,027.5,024.1,000.0,035.8,028.9,31.8,0000.6,0008.39,0004.45,0004.07
2023-08-29 19:12:00,SystemResetWarning,0838.6,4.99,000.00,027.5,024.5,000.0,035.9,028.9,31.0,0001.0,0007.91,0004.44,0004.07
2023-08-29 19:13:00,SystemResetWarning,0838.6,5.00,000.00,027.5,024.9,000.0,035.9,029.1,30.8,0001.3,0007.68,0004.43,0004.07
2023-08-29 19:14:00,SystemResetWarning,0838.6,5.01,000.00,027.5,025.4,000.0,035.9,029.2,29.9,0001.0,0007.66,0004.44,0004.08
2023-08-29 19:15:00,SystemResetWarning,0838.6,5.00,000.00,027.6,025.7,000.0,036.0,029.3,29.4,0000.8,0007.79,0004.47,0004.09
2023-08-29 19:16:00,SystemResetWarning,0838.6,5.00,000.00,027.6,026.1,000.0,036.0,029.4,29.6,0000.6,0007.81,0004.46,0004.09
2023-08-29 19:17:00,SystemResetWarning,0838.6,5.00,000.00,027.7,026.4,000.0,036.0,029.5,29.7,-000.1,0007.66,0004.40,0004.07
2023-08-29 19:18:00,SystemResetWarning,0838.6,5.00,000.00,027.7,026.5,000.0,036.1,029.6,29.3,-000.4,0007.57,0004.36,0004.06
2023-08-29 19:19:00,SystemResetWarning,0838.5,4.98,000.00,027.7,025.6,000.0,036.0,029.3,30.1,-000.1,0007.50,0004.35,0004.05
2023-08-29 19:20:00,SystemResetWarning,0838.5,5.00,000.00,027.7,024.2,000.0,035.9,029.1,29.9,0000.0,0007.36,0004.31,0004.04
2023-08-29 19:21:00,SystemResetWarning,0838.5,5.01,000.00,027.6,024.0,000.0,035.8,028.9,29.4,0000.0,0007.46,0004.30,0004.04
2023-08-29 19:22:00,SystemResetWarning,0838.5,5.01,000.00,027.5,024.2,000.0,035.8,028.8,31.0,0000.0,0007.58,0004.29,0004.04
2023-08-29 19:23:00,SystemResetWarning,0838.5,5.00,000.00,027.5,024.6,000.0,035.9,029.0,30.9,0000.0,0007.09,0004.28,0004.04
2023-08-29 19:24:00,SystemResetWarning,0838.4,5.00,000.00,027.5,025.1,000.0,035.9,029.1,30.8,0000.0,0007.00,0004.31,0004.06
2023-08-29 19:25:00,SystemResetWarning,0838.5,5.00,000.00,027.6,025.5,000.0,035.9,029.2,31.2,0000.0,0007.00,0004.30,0004.06
2023-08-29 19:26:00,SystemResetWarning,0838.5,5.00,000.00,027.6,025.9,000.0,036.0,029.4,30.0,0000.0,0007.03,0004.31,0004.06
2023-08-29 19:27:00,SystemResetWarning,0838.4,5.00,000.00,027.7,026.2,000.0,036.0,029.4,29.5,0000.0,0007.55,0004.36,0004.07
2023-08-29 19:28:00,SystemResetWarning,0838.4,5.00,000.00,027.7,026.5,000.0,036.0,029.5,29.6,0000.0,0007.53,0004.35,0004.08
2023-08-29 19:29:00,SystemResetWarning,0838.4,4.99,000.00,027.8,026.4,000.0,036.0,029.6,29.5,0000.0,0007.54,0004.37,0004.09
2023-08-29 19:30:00,SystemResetWarning,0838.4,4.99,000.00,027.7,024.9,000.0,035.9,029.3,29.7,0000.0,0007.56,0004.38,0004.11
2023-08-29 19:31:00,SystemResetWarning,0838.4,5.01,000.00,027.6,023.9,000.0,035.8,029.0,29.5,0000.0,0007.56,0004.39,0004.11
2023-08-29 19:32:00,SystemResetWarning,0838.4,5.00,000.00,027.6,023.9,000.0,035.8,028.9,29.8,0000.0,0007.52,0004.39,0004.11
2023-08-29 19:33:00,SystemResetWarning,0838.4,5.01,000.00,027.5,024.3,000.0,035.8,028.9,30.4,0000.0,0007.46,0004.41,0004.10
2023-08-29 19:34:00,SystemResetWarning,0838.4,5.00,000.00,027.5,024.7,000.0,035.9,029.0,31.1,0000.0,0007.81,0004.42,0004.10
2023-08-29 19:35:00,SystemResetWarning,0838.3,5.00,000.00,027.5,025.1,000.0,035.9,029.1,30.4,0000.0,0007.92,0004.40,0004.09
2023-08-29 19:36:00,SystemResetWarning,0838.3,5.00,000.00,027.6,025.6,000.0,035.9,029.3,30.6,0000.0,0007.93,0004.39,0004.08
2023-08-29 19:37:00,SystemResetWarning,0838.4,5.00,000.00,027.6,025.9,000.0,036.0,029.4,30.1,0000.0,0007.83,0004.37,0004.07
2023-08-29 19:38:00,SystemResetWarning,0838.4,5.00,000.00,027.7,026.2,000.0,036.0,029.5,30.5,0000.0,0007.78,0004.32,0004.05
2023-08-29 19:39:00,SystemResetWarning,0838.4,5.00,000.00,027.7,026.5,000.0,036.0,029.5,30.3,0000.0,0007.81,0004.32,0004.04
2023-08-29 19:40:00,SystemResetWarning,0838.4,4.99,000.00,027.7,025.9,000.0,036.0,029.4,29.7,0000.0,0008.19,0004.34,0004.02
2023-08-29 19:41:00,SystemResetWarning,0838.4,5.00,000.00,027.7,024.5,000.0,035.9,029.2,29.5,0000.0,0008.31,0004.35,0004.02
2023-08-29 19:42:00,SystemResetWarning,0838.4,5.01,000.00,027.6,023.9,000.0,035.8,029.0,29.7,0000.0,0008.50,0004.34,0004.01
2023-08-29 19:43:00,SystemResetWarning,0838.4,5.01,000.00,027.5,024.1,000.0,035.8,028.9,29.7,0000.0,0008.41,0004.33,0004.01
2023-08-29 19:44:00,SystemResetWarning,0838.4,4.98,000.00,027.5,024.5,000.0,035.8,028.9,29.8,0000.0,0009.04,0004.30,0004.01
2023-08-29 19:45:00,SystemResetWarning,0838.3,5.00,000.00,027.5,024.9,000.0,035.9,029.1,29.7,0000.0,0009.07,0004.28,0004.01
2023-08-29 19:46:00,SystemResetWarning,0838.3,5.00,000.00,027.5,025.4,000.0,035.9,029.2,30.1,0000.0,0008.76,0004.29,0004.01
2023-08-29 19:47:00,SystemResetWarning,0838.3,5.01,000.00,027.6,025.7,000.0,036.0,029.3,30.6,0000.0,0008.76,0004.29,0004.00
2023-08-29 19:48:00,SystemResetWarning,0838.3,5.01,000.00,027.6,026.1,000.0,036.0,029.4,29.7,0000.0,0008.86,0004.31,0004.00
2023-08-29 19:49:00,SystemResetWarning,0838.3,4.99,000.00,027.7,026.3,000.0,036.0,029.5,29.5,0000.0,0008.63,0004.30,0003.98
2023-08-29 19:50:00,SystemResetWarning,0838.3,5.00,000.00,027.7,026.5,000.0,036.0,029.6,29.7,-000.0,0008.49,0004.29,0003.98
2023-08-29 19:51:00,SystemResetWarning,0838.3,4.99,000.00,027.7,025.5,000.0,036.0,029.4,29.0,0000.1,0008.78,0004.26,0003.97
2023-08-29 19:52:00,SystemResetWarning,0838.2,5.01,000.00,027.7,024.1,000.0,035.8,029.1,28.9,0000.9,0008.91,0004.21,0003.95
2023-08-29 19:53:00,SystemResetWarning,0838.2,5.00,000.00,027.6,023.9,000.0,035.8,029.0,30.3,0001.4,0008.65,0004.18,0003.93
2023-08-29 19:54:00,SystemResetWarning,0838.2,5.01,000.00,027.5,024.2,000.0,035.8,028.9,29.5,0001.2,0008.60,0004.15,0003.90
2023-08-29 19:55:00,SystemResetWarning,0838.2,5.00,000.00,027.5,024.6,000.0,035.9,029.0,29.1,0001.2,0007.84,0004.14,0003.89
2023-08-29 19:56:00,SystemResetWarning,0838.2,5.00,000.00,027.5,025.0,000.0,035.9,029.1,28.8,0000.7,0007.57,0004.12,0003.87
2023-08-29 19:57:00,SystemResetWarning,0838.2,4.99,000.00,027.6,025.5,000.0,035.9,029.2,29.2,0000.2,0007.76,0004.10,0003.84
2023-08-29 19:58:00,SystemResetWarning,0838.3,5.00,000.00,027.6,025.8,000.0,036.0,029.4,29.2,0000.0,0007.93,0004.06,0003.82
2023-08-29 19:59:00,SystemResetWarning,0838.3,5.00,000.00,027.7,026.1,000.0,036.0,029.5,29.0,0000.0,0007.80,0004.04,0003.82
